Change the Weather History Date:

Sunday, March 9, 2014

  Actual Average Record
Temperature  
Mean Temperature 59 °F 52 °F  
Max Temperature 74 °F 66 °F 84 °F (1972)
Min Temperature 43 °F 39 °F 26 °F (1964)
Degree Days  
Heating Degree Days 6 13  
Month to date heating degree days 90 120  
Since 1 July heating degree days 1988 2365  
Cooling Degree Days 0 0  
Month to date cooling degree days 0 0  
Year to date cooling degree days 1 0  
Growing Degree Days 9 (Base 50)    
Moisture  
Dew Point 29 °F    
Average Humidity 40    
Maximum Humidity 65    
Minimum Humidity 14    
Precipitation  
Precipitation 0.00 in 0.05 in 0.14 in (2010)
Month to date precipitation 0.48 0.60  
Year to date precipitation 1.87 3.89  
Since 1 July precipitation 3.94  
Snow  
Snow 0.00 in - T in (1962)
Month to date snowfall 0.0  
Since 1 July snowfall 0.0  
Snow Depth 0.00 in    
Sea Level Pressure  
Sea Level Pressure 30.19 in    
Wind  
Wind Speed 4 mph (North)    
Max Wind Speed 13 mph    
Max Gust Speed 14 mph    
Visibility 10 miles    
Events      
T = Trace of Precipitation, MM = Missing Value Source: NWS Daily Summary

Daily Weather History Graph

Daily Weather History Graph

Search for Another Location

Airport or City:

Trip Planner

Search our weather history database for the weather conditions in past years. The results will help you decide how hot, cold, wet, or windy it might be!

Date:

Astronomy

Mar. 09, 2014 Rise Set
Actual Time 7:10 AM PDT 6:55 PM PDT
Civil Twilight 6:45 AM PDT 7:20 PM PDT
Nautical Twilight 6:16 AM PDT 7:49 PM PDT
Astronomical Twilight 5:47 AM PDT 8:18 PM PDT
Moon 1:02 PM PDT (3/9) 3:30 AM PDT (3/9)
Length of Visible Light 12h 34m
Length of Day
11h 44m
First Quarter, 62% of the Moon is Illuminated
Mar 9
First Quarter
Mar 16
Full
Mar 23
Last Quarter
Mar 30
New
Apr 7
First Quarter

Hourly Weather History & Observations

Time (PDT) Temp. Windchill Dew Point Humidity Pressure Visibility Wind Dir Wind Speed Gust Speed Precip Events Conditions
12:53 AM 46.9 °F - 35.1 °F 63% 30.25 in 10.0 mi Calm Calm - N/A   Clear
1:53 AM 48.0 °F - 30.0 °F 50% 30.24 in 10.0 mi SE 5.8 mph - N/A   Clear
3:53 AM 45.0 °F 41.8 °F 28.9 °F 53% 30.23 in 10.0 mi SSW 5.8 mph - N/A   Clear
4:53 AM 45.0 °F - 33.1 °F 63% 30.23 in 10.0 mi Calm Calm - N/A   Clear
5:53 AM 46.0 °F - 32.0 °F 58% 30.24 in 10.0 mi Calm Calm - N/A   Clear
6:53 AM 45.0 °F - 34.0 °F 65% 30.26 in 10.0 mi Calm Calm - N/A   Clear
7:53 AM 46.0 °F 43.9 °F 36.0 °F 68% 30.27 in 10.0 mi South 4.6 mph - N/A   Clear
8:53 AM 51.1 °F - 34.0 °F 52% 30.28 in 10.0 mi Calm Calm - N/A   Clear
9:53 AM 52.0 °F - 30.9 °F 45% 30.28 in 10.0 mi Calm Calm - N/A   Clear
10:53 AM 59.0 °F - 28.9 °F 32% 30.27 in 10.0 mi Variable 4.6 mph - N/A   Clear
11:53 AM 64.9 °F - 30.0 °F 27% 30.25 in 10.0 mi North 6.9 mph - N/A   Clear
12:53 PM 66.9 °F - 27.0 °F 22% 30.23 in 10.0 mi NE 6.9 mph - N/A   Clear
1:53 PM 71.1 °F - 26.1 °F 19% 30.19 in 10.0 mi NE 9.2 mph - N/A   Clear
2:53 PM 72.0 °F - 24.1 °F 17% 30.15 in 10.0 mi East 8.1 mph - N/A   Clear
3:53 PM 73.0 °F - 24.1 °F 16% 30.14 in 10.0 mi NNE 8.1 mph - N/A   Clear
4:53 PM 73.9 °F - 21.9 °F 14% 30.13 in 10.0 mi NNE 4.6 mph - N/A   Clear
5:53 PM 72.0 °F - 21.0 °F 15% 30.12 in 10.0 mi NNE 11.5 mph - N/A   Clear
6:53 PM 66.0 °F - 25.0 °F 21% 30.12 in 10.0 mi North 6.9 mph - N/A   Clear
7:53 PM 64.9 °F - 24.1 °F 21% 30.13 in 10.0 mi NNW 4.6 mph - N/A   Clear
8:53 PM 62.1 °F - 28.0 °F 28% 30.13 in 10.0 mi Calm Calm - N/A   Clear
9:53 PM 60.1 °F - 33.1 °F 36% 30.14 in 10.0 mi SW 3.5 mph - N/A   Clear
10:53 PM 57.9 °F - 30.9 °F 36% 30.14 in 10.0 mi WSW 4.6 mph - N/A   Clear
11:53 PM 55.0 °F - 30.9 °F 40% 30.13 in 10.0 mi West 6.9 mph - N/A   Clear
12:53 AM 51.1 °F - 30.9 °F 46% 30.12 in 10.0 mi SW 3.5 mph - N/A   Clear